• MPC Preparation (Info)

  • MPEC 2014-J17 : 2014 HV177

    The following Minor Planet Electronic Circular may be linked-to from your own Web pages, but must not otherwise be redistributed electronically.

    A form allowing access to any MPEC is at the bottom of this page.


    Read MPEC 2014-J16 Read MPEC 2014-J18


    M.P.E.C. 2014-J17                                Issued 2014 May 3, 00:34 UT
    
         The Minor Planet Electronic Circulars contain information on unusual
             minor planets and routine data on comets.  They are published
       on behalf of Commission 20 of the International Astronomical Union by the
              Minor Planet Center, Smithsonian Astrophysical Observatory,
                              Cambridge, MA 02138, U.S.A.
    
                 Prepared using the Tamkin Foundation Computer Network
    
                                  MPC@CFA.HARVARD.EDU
                URL https://www.minorplanetcenter.net/    ISSN 1523-6714
    
                                      2014 HV177
    
    Observations:
         K14HH7V* C2014 04 30.25459 11 21 50.576+01 15 43.53         19.9 wLEJ017F51
         K14HH7V  C2014 04 30.26679 11 21 54.394+01 15 03.96         20.0 wLEJ017F51
         K14HH7V  C2014 04 30.27903 11 21 58.224+01 14 24.32         20.1 wLEJ017F51
         K14HH7V  C2014 04 30.29133 11 22 02.061+01 13 44.26         20.0 wLEJ017F51
         K14HH7V HC2014 04 30.92680 11 25 25.94 +00 39 32.5                tEJ017204
         K14HH7V KC2014 04 30.94751 11 25 32.42 +00 38 28.2          20.2 RtEJ017204
         K14HH7V |C2014 04 30.99546 11 25 49.62 +00 36 42.0          19.8  uEJ017807
         K14HH7V |C2014 04 30.99972 11 25 50.91 +00 36 28.7          19.7  uEJ017807
         K14HH7V |C2014 05 01.00437 11 25 52.33 +00 36 14.2          20.0  uEJ017807
         K14HH7V _C2014 05 01.39202511 27 52.432+00 15 32.88         19.5 RtEJ017568
         K14HH7V _C2014 05 01.39328011 27 52.805+00 15 29.03         19.3 RtEJ017568
         K14HH7V _C2014 05 01.39453111 27 53.183+00 15 25.16         19.3 RtEJ017568
         K14HH7V  C2014 05 02.14866 11 31 47.13 -00 22 55.0          19.9 RoEJ017926
         K14HH7V  C2014 05 02.15517 11 31 49.03 -00 23 14.6          19.8 RoEJ017926
         K14HH7V KC2014 05 02.15968 11 31 49.81 -00 23 31.9          19.6 RqEJ017H36
         K14HH7V  C2014 05 02.16096 11 31 50.71 -00 23 31.8          19.9 RoEJ017926
         K14HH7V KC2014 05 02.16451 11 31 51.18 -00 23 46.0          19.3 RqEJ017H36
         K14HH7V KC2014 05 02.17411 11 31 54.05 -00 24 14.8          19.6 RqEJ017H36
         K14HH7V  C2014 05 02.22292 11 32 08.67 -00 26 37.1                qEJ017I52
         K14HH7V  C2014 05 02.22394 11 32 09.00 -00 26 39.9                qEJ017I52
         K14HH7V  C2014 05 02.22496 11 32 09.28 -00 26 43.0                qEJ017I52
         K14HH7V KC2014 05 02.89815 11 35 30.71 -00 59 45.9                qEJ017J95
         K14HH7V KC2014 05 02.90455 11 35 32.58 -01 00 04.8                qEJ017J95
         K14HH7V KC2014 05 02.91182 11 35 34.68 -01 00 24.8          20.0 RqEJ017J95
    
    Observer details:
    204 Schiaparelli Observatory.  Observer L. Buzzi.  0.60-m f/4.64 reflector
        + CCD.
    568 Mauna Kea.  Observers R. J. Wainscoat, D. Woodworth.  Measurers M. Micheli,
        R. J. Wainscoat, P. Veres.  3.6-m Canada-France-Hawaii Telescope + CCD.
    807 Cerro Tololo.  Observers T. Linder, R. Holmes.  0.41-m f/11
        Ritchey-Chretien + CCD.
    926 Tenagra II Observatory.  Observers M. Schwartz, P. R. Holvorcem.  0.81-m
        f/7 Ritchey-Chretien + CCD.
    F51 Pan-STARRS 1, Haleakala.  Observers N. Primak, A. Schultz, T. Goggia,
        M. Willman.  Measurer PS1 Science Consortium.  1.8-m Ritchey-Chretien
        + CCD.
    H36 Sandlot Observatory, Scranton.  Observer G. Hug.  0.56-m reflector + CCD.
    I52 Steward Observatory, Mt. Lemmon Station.  Observer A. R. Gibbs.  Measurers
        E. J. Christensen, A. R. Gibbs, A. D. Grauer, R. E. Hill, J. A. Johnson,
        R. A. Kowalski, S. M. Larson, R. J. Sanders, F. C. Shelly.  1.0-m
        reflector + CCD.
    J95 Great Shefford.  Observer P. Birtwhistle.  0.40-m f/6.0 Schmidt-Cassegrain
        + CCD.
    
    Orbital elements:
    2014 HV177                                          PHA, Earth MOID = 0.0371 AU
    Epoch 2014 May 23.0 TT = JDT 2456800.5                  MPC
    M  23.74144              (2000.0)            P               Q
    n   0.31493056     Peri.  127.37594     -0.88182664     -0.47041389
    a   2.1395684      Node    24.61466     +0.40368890     -0.78925850
    e   0.5463982      Incl.    4.55168     +0.24375613     -0.39469202
    P   3.13           H   21.0           G   0.15           U   8
    Residuals in seconds of arc
    140430 F51  0.1-  0.1-    140501 807  0.1-  0.1+    140502 H36  0.7-  0.0
    140430 F51  0.0   0.0     140501 568  0.2+  0.0     140502 H36  0.3+  0.2-
    140430 F51  0.1+  0.2+    140501 568  0.2+  0.0     140502 I52  0.4-  0.1-
    140430 F51  0.1+  0.1+    140501 568  0.2+  0.0     140502 I52  0.1+  0.1+
    140430 204  1.0-  0.9-    140502 926  0.1-  0.1-    140502 I52  0.1-  0.0
    140430 204  0.2+  0.2+    140502 926  0.1+  0.3-    140502 J95  0.5-  0.0
    140430 807  0.0   0.2-    140502 H36  0.2-  0.4-    140502 J95  0.1+  0.4-
    140430 807  0.1-  0.1-    140502 926  0.0   0.2-    140502 J95  0.5+  0.6+
    
    Ephemeris:
    2014 HV177               a,e,i = 2.14, 0.55, 5                   q = 0.9705
    Date    TT    R. A. (2000) Decl.     Delta      r     Elong.  Phase     V
    2014 04 03    07 15 15.7 +32 14 25   0.1719  1.0234    93.1    77.3    19.9
    ...
    2014 04 18    09 55 00.8 +15 19 46   0.1748  1.0967   117.9    54.0    19.4
    ...
    2014 04 26    10 56 29.5 +05 29 25   0.2070  1.1447   127.8    44.0    19.6
    ...
    2014 05 02    11 31 01.3 -00 15 08   0.2423  1.1837   132.0    39.2    19.8
    2014 05 03    11 36 00.7 -01 04 09   0.2489  1.1904   132.5    38.6    19.9
    2014 05 04    11 40 48.9 -01 50 58   0.2557  1.1972   133.0    38.0    20.0
    ...
    2014 05 10    12 06 13.9 -05 50 30   0.3004  1.2388   134.5    35.6    20.3
    ...
    2014 05 18    12 33 17.9 -09 43 54   0.3689  1.2966   134.4    33.9    20.8
    ...
    2014 06 02    13 11 59.4 -14 24 30   0.5204  1.4092   130.6    33.1    21.7
    
    A. U. Tomatic                (C) Copyright 2014 MPC           M.P.E.C. 2014-J17
    

    Read MPEC 2014-J16 Read MPEC 2014-J18


    MPEC number:

    Enter an MPEC number in one of the following forms:

    • 1997-B01 (the full form)
    • J97B01 (the packed version of the full form)
    • B01 (the abbreviated form)